Location: *
(46.1833°N, 22.7667°E)
Time: 16:10:20
(UTC+00:00)

ERS-1 Rocket - Pass Details

Date: 17 September 2019
Orbit: 754 x 757 km, 98.5° (Epoch: 20 October)

Event Time Altitude Azimuth Distance (km) Brightness Sun altitude
Exits shadow 19:20:29 36° 33° (NNE) 1,180 3.9 -27.1°
Drops below altitude 10° 19:24:01 10° 358° (N) 2,293 5.9 -27.6°
Sets 19:26:25 0° 352° (N) 3,223 6.9 -27.9°
